Theta_e
321 321 321 321 321 320 320 321 321 321 321 321 321 321 321 320 320 320 320 320 320 320 321 321 321 322 321 321 322 322 321 321 324 325 326 326 338 349 353 349 345 350 351 326 330 333 335 337 337 340 338 339 340 341 347 344 347 343 329 324 320 326 325 329 323 326 330 328 330 333 335 335 330 334 335 338 332 332 329 328 332 334 335 337 338 340 339 338
320 320 320 320 320 320 321 321 321 321 321 321 321 321 321 321 320 321 320 320 321 321 321 321 321 321 321 321 322 323 321 323 322 323 325 347 354 349 349 344 348 351 345 323 328 334 334 332 335 337 336 333 344 340 342 340 347 333 331 330 321 329 328 336 334 331 329 327 332 332 334 333 330 334 335 330 328 328 326 328 332 331 334 336 337 337 336 336
320 320 320 320 321 321 321 321 321 320 320 320 321 321 320 320 320 320 320 320 320 320 320 321 320 321 321 322 322 322 322 324 327 326 334 347 353 351 344 352 350 354 322 323 332 337 333 332 333 336 335 333 339 338 338 343 342 337 330 323 323 332 335 338 339 331 335 333 330 331 331 333 333 335 336 329 326 327 325 325 328 328 328 331 333 334 334 335
320 320 320 320 320 320 320 320 320 320 320 320 320 320 320 320 320 320 319 319 320 320 321 320 321 321 322 322 322 323 324 325 321 329 333 347 346 347 342 350 348 346 324 324 331 334 334 332 331 333 332 330 335 335 335 339 334 335 331 329 328 334 331 334 336 334 335 336 331 332 331 331 334 335 334 330 326 327 328 329 328 327 328 330 331 332 334 335
319 319 320 320 320 320 320 320 320 320 320 320 320 320 320 320 319 319 319 319 319 320 320 321 321 321 322 322 322 324 324 312 321 328 334 344 343 344 347 348 347 327 322 324 331 334 332 327 327 329 332 336 338 329 334 336 339 337 330 332 333 336 332 335 336 339 336 337 335 331 328 329 337 337 331 331 326 323 328 329 330 331 330 330 330 332 335 337
319 319 319 319 319 319 320 320 320 320 320 320 320 320 320 319 319 319 319 319 320 320 320 321 321 321 322 322 322 323 321 308 326 323 346 342 343 343 342 346 348 337 326 325 329 332 327 326 326 326 329 328 328 325 335 337 342 325 331 334 336 336 333 341 343 340 337 336 335 331 332 335 334 331 335 333 330 332 335 332 332 331 332 332 334 336 336 337
319 319 319 319 319 319 319 320 320 320 319 319 319 319 319 319 319 319 319 319 319 319 320 321 322 322 322 321 323 322 320 323 327 325 338 344 338 342 344 346 347 330 332 330 330 325 324 324 326 326 328 327 328 327 329 328 336 332 328 335 337 341 338 344 344 341 334 337 334 335 337 334 333 327 334 333 332 336 335 333 332 333 334 335 335 336 336 337
318 318 318 318 319 319 319 319 319 320 319 319 319 319 319 319 319 319 319 319 319 320 320 321 322 323 322 324 322 324 322 321 324 328 348 343 334 332 342 331 329 326 330 330 326 321 322 321 323 328 327 324 326 323 331 329 335 331 332 336 339 341 342 344 339 336 338 338 338 337 334 333 334 330 333 331 333 333 334 333 333 334 335 336 336 336 337 337
318 318 318 318 318 318 318 318 319 319 319 319 319 319 319 319 319 319 319 319 319 320 321 322 322 323 323 321 318 315 318 323 324 323 328 324 328 325 328 328 326 324 324 323 321 320 320 322 325 328 323 324 328 324 329 328 327 333 333 338 338 339 341 340 340 340 339 341 340 334 332 335 334 333 330 332 333 335 334 332 333 334 334 335 336 336 337 337
317 317 318 318 317 317 318 318 319 319 319 319 319 318 318 318 318 318 319 319 319 320 320 322 322 323 322 322 322 315 323 330 326 328 331 329 325 326 328 330 324 324 321 319 320 320 319 321 324 326 328 325 328 323 330 330 329 336 334 337 338 338 340 342 339 340 338 338 338 332 331 333 334 334 321 334 334 334 333 333 334 333 334 335 335 336 337 337
317 317 317 317 317 317 317 318 318 318 318 319 318 317 317 317 317 318 318 319 319 320 321 322 323 322 323 325 319 316 327 330 330 328 330 327 325 325 328 330 325 320 320 319 318 319 321 323 324 327 325 321 323 324 329 333 337 337 335 336 338 339 340 340 337 341 342 336 333 335 336 334 333 334 325 331 334 334 332 332 332 333 334 335 335 336 338 337
317 317 317 317 316 316 317 318 318 318 318 318 317 317 317 317 317 317 318 319 319 320 321 323 323 323 323 323 321 318 329 329 332 329 329 327 323 324 325 325 324 321 320 318 318 319 320 322 323 322 317 327 318 321 328 335 338 338 336 329 332 335 331 338 336 338 340 334 338 338 333 329 329 329 331 331 334 333 332 331 332 333 334 335 336 337 337 337
317 317 316 316 316 316 317 317 317 318 318 317 317 317 317 317 317 317 318 318 320 321 322 323 324 326 326 323 319 326 329 331 331 329 329 326 326 325 325 324 323 322 321 319 318 319 320 321 321 318 324 323 321 318 335 335 340 337 335 331 328 328 329 332 336 337 332 338 341 338 315 322 327 332 331 337 332 333 331 331 331 332 333 335 336 337 337 338
317 317 316 316 316 316 316 317 317 317 317 317 316 316 316 316 317 317 318 319 321 321 322 323 324 324 325 319 321 325 327 330 328 326 328 328 325 323 322 323 323 322 322 319 320 321 320 321 321 321 326 322 318 327 321 332 336 326 328 332 325 323 320 332 332 336 330 341 340 338 318 320 327 332 333 335 334 331 329 330 331 332 333 334 335 336 337 337
317 317 316 316 316 316 316 316 316 316 316 316 315 315 316 316 318 320 320 320 320 322 322 323 325 325 325 315 322 325 361 328 324 325 328 325 322 320 318 320 320 321 321 321 320 321 320 320 320 319 318 325 325 320 316 322 329 327 320 317 324 320 322 330 336 335 327 336 342 333 317 321 327 329 334 335 334 332 329 330 331 331 332 333 335 335 336 335
317 316 316 316 316 316 316 315 315 315 316 315 314 314 316 318 321 321 321 321 323 325 326 323 328 328 321 317 318 339 324 318 321 327 328 325 322 318 320 319 320 320 320 319 321 320 320 319 317 320 320 322 319 317 317 318 322 326 318 315 316 319 321 324 332 334 336 331 337 333 319 322 324 332 333 334 333 332 330 330 330 331 332 333 334 336 336 337
317 316 316 316 315 315 315 315 314 315 315 314 314 316 317 321 323 323 322 322 324 324 325 325 329 332 319 320 326 317 318 323 324 322 324 324 323 322 317 316 316 316 318 318 318 318 317 315 320 320 320 315 316 315 312 313 315 317 322 317 322 317 322 318 329 333 334 331 325 330 324 326 327 330 332 333 333 331 328 330 330 331 331 332 334 335 335 337
316 316 316 315 315 315 315 314 314 314 314 314 314 314 316 321 323 323 325 322 326 328 326 329 328 321 317 319 313 316 320 320 319 320 323 324 323 320 316 314 315 314 315 313 315 312 314 311 318 313 316 315 314 311 307 309 315 315 316 317 317 321 320 320 320 328 331 331 327 326 324 326 329 329 331 331 333 330 328 328 329 330 330 332 332 334 335 336
316 316 315 315 315 315 315 314 314 314 314 314 315 316 318 319 322 326 325 330 325 323 314 314 318 308 305 313 317 317 318 319 320 321 319 320 321 320 317 317 315 312 308 308 309 310 312 310 314 312 308 310 312 314 313 318 319 318 319 318 318 315 318 319 326 332 332 325 324 323 320 324 329 329 330 330 333 330 329 330 330 330 330 332 332 333 334 336
315 315 315 315 315 315 315 314 313 313 313 314 321 327 329 329 325 318 327 328 326 321 316 315 319 317 317 317 317 320 322 320 315 318 320 321 319 316 315 316 314 312 308 305 308 310 312 306 305 306 309 312 314 317 318 320 323 321 322 320 318 318 320 324 326 331 333 326 323 323 322 326 329 330 331 329 331 330 330 328 329 330 330 330 331 333 334 335
315 315 315 315 314 315 314 313 313 312 313 314 318 320 315 314 311 310 316 319 326 318 315 316 316 316 314 316 319 318 315 316 319 316 318 322 319 315 312 313 310 306 307 309 308 313 311 304 306 309 312 315 319 321 322 323 321 322 321 318 318 320 317 322 322 330 331 325 323 324 324 325 328 332 331 331 333 328 329 328 330 329 330 330 330 333 334 336
316 315 314 314 314 314 313 313 312 312 311 316 320 319 322 319 321 323 319 312 314 315 314 315 316 315 317 317 319 318 319 315 314 316 320 319 316 311 312 310 308 305 309 309 309 308 306 304 308 312 315 316 319 320 320 320 320 319 317 316 316 317 324 326 326 328 330 326 319 324 321 324 326 329 329 331 329 332 332 331 331 331 330 329 330 332 334 335
316 315 315 314 314 313 313 312 312 310 315 323 324 324 320 323 326 328 323 318 314 316 315 315 315 315 315 318 320 320 314 313 311 315 316 316 314 313 313 310 308 308 309 309 305 305 305 309 311 313 314 315 317 318 317 317 321 317 318 315 314 320 319 313 324 326 328 324 322 322 320 323 328 328 330 334 333 332 334 335 338 334 330 329 330 332 333 334
316 316 315 314 313 313 312 312 309 315 320 318 321 322 324 326 326 325 320 313 312 312 315 315 316 316 315 313 318 317 313 313 312 313 319 316 313 315 310 309 308 308 306 309 307 305 307 313 316 315 314 315 314 315 315 314 316 318 318 317 316 318 318 319 321 328 328 329 329 325 319 319 323 322 325 333 337 334 334 335 336 334 334 333 332 333 335 334
316 316 315 315 313 312 311 309 314 320 323 324 322 325 325 327 330 326 317 314 314 311 317 315 317 316 317 322 321 314 314 314 314 318 319 316 314 312 310 313 310 306 307 310 309 308 308 313 314 312 313 313 311 310 311 313 310 315 319 318 317 319 318 321 325 322 319 318 325 324 311 311 320 322 324 328 333 330 331 332 333 332 334 333 331 331 334 336
316 315 315 314 314 312 309 317 323 322 320 319 322 325 325 326 329 329 317 308 305 308 313 306 317 311 321 315 318 317 316 309 316 318 319 317 320 314 313 309 310 304 308 308 307 308 309 313 313 311 311 311 310 309 311 312 309 312 314 320 319 319 320 320 320 318 311 310 319 324 309 307 318 320 322 325 327 327 328 331 331 332 333 331 333 331 332 334
315 315 314 314 313 310 317 315 324 318 317 319 324 325 325 326 339 328 313 307 302 308 307 313 314 312 317 316 317 318 303 307 318 319 317 319 313 319 308 308 310 309 309 310 307 304 310 310 310 311 310 309 309 307 311 311 308 306 319 320 318 319 317 319 319 317 317 323 320 322 317 309 309 316 323 326 323 325 327 330 332 331 332 330 331 331 333 334
316 314 313 312 312 310 318 319 317 315 318 322 325 324 326 334 333 327 312 298 295 311 307 311 314 320 317 316 316 312 311 315 309 315 320 319 318 315 312 309 308 309 310 308 298 308 309 307 309 308 309 307 306 310 312 313 309 311 320 319 316 318 320 321 320 317 318 316 311 318 319 309 310 316 324 324 319 321 324 328 330 333 332 332 331 331 332 335
315 314 313 312 311 310 314 315 319 314 319 324 324 324 325 336 325 315 305 297 305 308 318 308 320 317 315 317 314 314 314 314 308 315 320 320 320 315 309 311 312 310 311 309 303 307 310 310 310 310 308 305 309 310 311 311 308 317 319 318 317 318 317 321 318 317 315 312 306 313 318 307 309 315 317 321 318 318 322 326 329 332 333 334 331 331 332 334
314 313 312 311 312 317 315 318 319 323 323 323 324 325 325 324 318 307 302 295 309 301 310 311 310 309 313 309 310 313 310 311 313 315 317 313 315 315 314 317 311 309 307 309 307 308 310 315 315 310 308 310 310 312 312 311 314 317 316 314 314 314 316 318 319 316 313 305 308 314 316 313 307 315 314 315 316 320 323 325 329 332 333 335 333 332 332 333
313 312 311 310 316 322 326 323 327 330 327 329 325 323 322 319 308 302 296 300 309 307 311 309 307 312 308 308 306 312 311 312 312 313 309 314 312 313 312 309 312 308 307 307 306 308 309 310 309 310 312 311 312 309 313 313 315 314 310 309 310 312 315 314 315 317 305 303 312 315 316 316 304 313 319 321 327 327 326 324 326 329 332 332 335 333 332 333
311 310 311 313 320 321 314 315 322 323 330 328 323 318 316 305 310 300 300 311 299 304 305 306 309 309 308 309 308 310 308 309 312 311 309 310 309 308 308 304 307 301 302 303 303 308 306 306 310 311 314 310 308 307 308 311 312 312 310 309 304 303 305 302 309 301 304 302 311 317 318 314 312 317 320 323 327 328 329 328 333 330 331 335 336 335 334 333
310 310 309 312 316 319 320 321 321 325 330 325 319 317 309 304 298 306 304 304 300 308 305 309 307 307 308 307 306 308 310 305 310 310 310 311 309 310 312 308 309 305 298 305 303 303 304 309 308 309 310 311 309 303 303 304 308 308 306 305 302 298 298 296 302 306 304 309 316 315 317 308 314 317 326 324 326 328 329 331 333 334 334 335 336 337 335 333
310 311 317 321 318 322 323 326 327 330 323 322 316 311 308 300 299 320 305 306 304 310 309 307 307 307 307 304 306 309 305 309 309 309 309 307 306 305 308 310 309 307 307 305 301 303 298 299 304 307 304 311 308 306 306 306 308 307 310 308 305 304 301 297 300 298 302 305 311 318 309 307 307 317 325 328 333 334 334 333 332 337 334 337 337 337 337 336
309 315 321 327 324 325 326 326 324 323 322 317 311 307 300 301 306 304 305 305 307 308 306 309 305 305 305 306 308 309 308 305 309 308 307 306 304 306 306 307 310 308 308 300 306 303 301 301 307 311 310 310 307 310 310 307 306 310 312 312 306 304 310 300 306 306 305 305 306 309 310 318 313 323 328 331 332 334 336 334 335 335 333 333 334 335 335 335
315 335 328 326 328 327 328 324 323 322 318 312 307 303 301 305 303 308 305 309 308 305 306 308 307 304 304 305 308 307 310 305 308 307 306 307 309 306 308 309 307 307 306 302 305 301 304 301 308 310 312 310 310 311 310 310 298 307 309 304 308 313 310 306 308 311 309 307 304 311 310 316 323 326 328 327 330 331 332 332 332 335 335 332 331 333 334 335
322 328 326 325 324 325 324 322 321 321 318 311 305 301 307 309 312 309 311 307 308 308 305 300 303 302 302 303 305 307 307 308 307 306 303 308 305 308 307 309 311 310 310 308 305 309 300 301 308 308 307 311 313 312 312 311 310 306 302 308 314 316 313 308 301 305 304 300 301 310 307 308 309 307 324 323 325 330 330 331 334 333 333 332 331 333 334 334
322 323 323 321 325 325 327 325 322 320 314 309 304 308 311 307 313 310 311 309 308 308 303 302 304 306 303 304 303 305 308 304 305 305 304 306 302 311 308 307 311 310 310 312 305 306 307 300 305 309 309 310 314 311 308 312 313 307 305 317 306 302 301 307 306 298 298 298 302 306 307 308 309 310 317 318 320 324 327 329 333 334 332 333 333 332 334 336
324 324 316 323 326 327 327 328 322 317 311 305 305 303 309 310 312 310 311 310 310 308 304 305 303 307 306 304 305 308 307 302 306 305 302 304 301 308 308 309 308 311 312 310 306 308 308 299 302 310 308 311 311 309 300 305 310 312 313 312 314 309 306 303 305 305 304 300 298 301 304 303 315 315 320 319 322 324 327 329 331 335 334 333 334 334 333 336
321 317 318 324 327 327 331 324 316 313 308 303 305 306 312 310 312 313 313 310 307 305 305 305 307 304 306 306 306 304 307 306 304 306 305 306 305 310 309 311 308 310 311 312 308 310 304 308 297 305 310 310 303 307 304 306 305 305 306 306 309 309 313 311 308 305 303 301 301 300 298 305 316 324 324 323 324 325 328 329 331 331 334 333 335 335 338 342
320 314 315 325 326 328 324 315 309 306 305 308 309 309 311 311 312 312 312 312 309 312 307 306 306 304 306 305 306 307 305 306 305 304 306 307 306 303 311 310 311 309 312 310 308 310 305 305 300 304 304 304 305 311 309 308 309 307 307 306 307 304 304 300 299 309 306 305 297 300 299 307 321 329 330 326 325 328 330 330 330 330 335 334 332 335 338 338
320 311 315 327 328 326 316 306 306 309 307 305 305 309 310 320 312 311 311 312 310 308 312 309 308 306 306 306 307 307 307 305 306 305 307 304 307 306 310 313 312 312 309 306 307 311 310 307 304 301 303 304 307 311 314 314 313 311 310 307 310 309 307 303 295 302 306 307 310 306 304 310 324 328 328 327 329 329 330 331 331 333 334 336 335 337 339 341
316 314 326 329 328 324 313 306 309 307 305 308 312 312 314 312 311 312 310 311 308 309 307 307 306 305 307 307 307 307 308 305 307 304 306 307 308 310 311 312 312 311 310 307 310 310 317 305 301 302 307 308 311 312 312 313 313 310 311 312 311 306 307 306 305 306 303 303 302 304 302 307 323 330 330 328 328 330 333 331 330 331 333 337 338 340 341 341
315 313 316 326 328 324 313 303 303 304 306 309 309 310 314 313 312 310 309 310 308 308 306 306 307 308 306 309 308 306 309 302 307 307 306 308 306 312 312 312 312 309 308 309 306 310 303 309 305 300 299 302 304 307 308 311 311 308 309 311 312 311 312 311 310 310 303 304 307 301 295 305 322 327 328 330 328 329 330 332 332 330 334 336 337 339 341 343
316 318 316 319 326 321 310 310 307 306 307 307 308 307 309 311 313 312 310 309 311 309 308 306 307 309 307 309 308 308 309 306 304 308 308 308 308 311 312 311 312 310 313 314 323 313 306 304 305 297 295 294 292 294 297 302 306 309 312 310 311 311 312 311 304 307 299 306 307 302 304 311 324 326 324 329 328 325 327 329 332 332 330 333 337 340 341 343
314 308 313 316 319 319 316 316 312 309 308 309 308 309 310 308 312 313 312 310 312 311 309 309 310 310 308 307 306 305 306 309 306 307 307 306 307 310 312 312 311 311 320 320 314 312 305 306 307 307 301 299 303 306 309 309 307 304 307 309 310 312 313 311 308 306 301 305 304 309 309 311 319 324 327 325 327 324 323 326 329 329 332 335 338 338 340 341
320 312 312 310 315 314 313 314 310 310 307 311 308 310 309 309 310 311 313 308 311 310 310 309 308 306 306 306 305 305 306 305 308 307 306 305 308 310 312 312 311 314 323 314 317 309 307 302 310 307 305 306 308 307 309 309 306 307 308 309 311 310 311 309 305 304 313 306 299 309 316 313 316 321 324 327 327 328 326 326 327 327 331 334 336 338 339 339
312 315 316 317 308 308 310 310 312 310 311 311 308 311 308 309 308 307 311 312 312 312 307 308 308 308 307 306 306 303 305 305 306 304 308 308 306 309 308 310 310 319 316 311 314 309 306 302 311 306 305 307 309 309 310 310 310 309 309 310 310 311 311 308 308 311 312 304 301 312 317 314 317 321 325 328 329 327 326 325 325 329 331 334 335 336 337 337
318 316 316 319 311 314 313 315 315 313 313 314 310 309 307 308 308 310 309 308 308 309 309 304 305 307 307 308 307 305 308 303 302 307 307 306 307 308 306 309 311 313 311 310 311 313 308 303 308 307 306 308 310 309 310 310 309 309 308 309 311 311 311 312 311 312 311 311 317 316 317 318 320 325 328 330 332 331 327 328 328 327 328 333 333 333 334 335
314 312 310 316 314 313 314 313 312 312 311 315 310 311 311 310 308 310 312 310 306 306 310 306 306 308 308 308 309 305 307 307 306 307 308 308 307 309 308 307 306 311 311 309 310 313 307 307 308 307 305 306 310 310 309 309 308 307 308 308 309 310 310 312 313 312 312 313 317 317 315 317 325 330 330 332 333 333 331 329 327 325 326 329 332 331 333 335
321 322 320 313 310 311 313 312 310 309 307 312 310 311 311 311 310 311 310 313 310 308 308 306 308 308 310 309 308 308 309 309 310 310 310 310 305 310 307 308 309 307 310 308 309 309 308 307 308 308 303 303 308 308 308 310 309 308 307 308 309 310 308 311 310 313 313 310 316 316 315 317 324 328 330 330 330 329 328 328 329 329 328 327 328 331 332 333
325 324 324 319 311 316 311 313 311 308 305 310 311 312 311 311 313 312 308 312 313 312 311 310 309 308 308 308 308 309 311 311 312 313 313 312 313 312 312 312 311 309 308 307 311 308 309 307 304 304 300 300 307 307 306 307 307 303 304 308 310 311 312 314 313 315 315 316 313 311 312 321 325 329 326 326 327 327 327 327 327 328 330 330 330 330 331 332
Wind_Speed
14 14 14 14 13 13 13 12 12 12 12 12 11 11 10 10 10 10 9 10 10 11 12 13 13 13 14 14 15 15 15 12 12 9 11 12 4 5 5 4 6 7 7 7 10 10 10 9 10 8 9 6 2 6 10 4 3 2 0 3 0 2 4 5 3 7 7 9 10 8 8 8 9 7 4 4 7 7 8 9 12 14 17 16 17 17 16 15
15 14 14 14 14 14 14 13 13 12 12 12 12 11 11 11 11 11 11 11 12 12 12 12 13 13 14 15 15 15 14 11 12 11 14 4 9 7 5 4 6 7 7 10 11 10 8 10 8 8 7 5 5 6 13 5 6 4 2 2 2 3 3 5 6 5 7 10 10 9 9 7 9 6 5 6 8 8 11 12 13 16 16 17 16 16 15 15
15 15 15 14 15 14 14 13 13 13 12 12 12 12 12 11 11 11 11 12 12 12 13 13 12 13 14 14 14 15 12 12 10 14 2 0 5 5 6 6 7 7 11 12 12 10 8 9 8 6 7 7 8 8 8 4 8 2 2 1 2 2 4 8 6 6 6 10 11 9 9 7 8 6 6 7 9 10 11 11 14 14 16 16 16 15 15 14
15 15 15 15 15 15 14 14 13 13 13 13 13 12 12 12 12 12 12 12 12 12 13 13 12 12 13 14 14 13 10 11 8 7 6 4 1 4 2 6 8 9 11 14 13 12 8 9 9 7 8 5 6 8 3 4 3 2 2 1 1 2 3 7 16 4 9 8 10 9 8 8 8 7 6 8 10 8 8 11 12 15 17 17 16 15 14 13
16 16 16 15 15 15 15 14 14 14 13 13 13 13 13 13 13 12 12 12 12 13 12 13 13 12 13 13 14 10 9 7 6 7 5 2 3 0 1 6 8 10 11 11 12 13 10 11 10 9 5 6 11 6 7 11 5 6 2 1 2 4 2 3 11 6 7 5 8 9 9 8 5 5 9 8 7 7 7 12 15 16 16 16 16 14 13 12
16 16 16 16 15 15 15 15 15 14 14 14 14 14 14 13 13 13 13 13 13 12 13 12 12 13 13 11 11 9 6 1 5 5 4 1 1 2 2 5 6 8 9 11 11 10 10 9 9 7 5 8 6 7 13 13 15 3 0 2 5 5 3 3 7 5 4 9 5 6 8 7 6 6 5 4 4 7 8 13 15 15 15 15 14 13 13 12
16 16 15 16 16 16 16 16 15 15 14 14 14 14 14 14 14 14 13 13 13 12 12 12 12 13 13 13 10 7 8 3 5 4 6 4 2 2 4 6 6 7 8 10 11 10 8 9 9 7 6 7 9 9 5 7 16 13 4 5 4 4 7 5 5 2 5 3 6 2 6 8 8 8 3 6 10 7 11 13 15 15 15 14 14 13 12 11
16 16 16 16 16 16 15 16 15 15 15 14 14 14 14 15 14 14 14 13 13 13 12 11 11 12 12 10 6 7 9 0 7 6 6 4 6 6 6 8 8 9 10 10 9 9 8 9 9 9 6 8 4 7 6 6 9 8 6 7 6 5 5 3 1 2 4 10 5 5 7 7 6 8 6 8 9 11 14 14 14 15 14 13 13 13 11 11
17 17 16 16 17 17 16 16 16 16 15 15 15 15 15 15 16 15 14 14 14 13 12 11 11 11 9 6 7 9 2 8 7 8 10 7 6 7 9 7 10 10 9 10 10 11 9 8 9 4 7 7 6 11 6 2 1 1 6 7 5 4 4 3 2 4 10 5 2 5 7 6 6 8 8 8 10 12 14 14 14 14 13 13 13 12 11 10
17 17 17 17 17 17 17 16 16 16 16 16 13 15 15 15 15 15 14 14 13 13 12 11 10 10 9 6 7 8 7 8 8 8 8 6 6 7 10 9 10 10 10 9 9 9 10 9 11 13 10 10 6 5 8 8 3 6 6 4 6 6 4 1 5 5 8 6 3 5 7 7 7 5 6 7 11 13 14 14 14 13 13 12 11 11 11 12
18 17 17 18 18 18 18 17 17 17 17 16 17 15 15 15 15 15 14 14 13 12 11 11 9 9 7 8 7 4 2 5 5 4 6 7 6 8 7 10 8 8 10 10 9 8 10 11 8 7 8 5 8 3 3 6 9 6 12 4 2 4 4 6 2 3 3 7 9 3 2 6 7 3 6 8 11 14 14 14 13 12 12 11 12 11 10 10
18 17 18 18 18 18 18 18 18 17 18 18 17 17 16 15 15 14 14 13 12 11 11 10 9 6 8 8 9 4 4 3 3 5 4 6 7 7 8 7 6 9 8 9 8 6 8 9 7 9 8 12 8 9 7 1 9 4 11 3 4 4 4 4 4 5 4 6 8 5 6 4 5 2 8 10 9 13 14 14 13 13 12 11 11 9 9 9
19 19 19 19 19 19 19 19 18 19 19 19 16 17 17 15 15 14 13 13 11 11 10 9 8 6 6 7 3 2 1 3 0 1 4 5 7 7 6 7 8 8 10 9 10 7 7 7 8 11 10 9 11 5 3 10 6 8 3 4 4 4 2 6 3 2 7 1 6 7 7 7 8 9 8 6 11 13 13 12 12 11 11 10 10 9 9 9
20 19 20 20 19 19 19 18 19 19 19 19 15 18 16 14 13 13 12 13 13 12 10 8 6 7 6 5 3 3 6 2 3 6 7 5 7 6 5 6 8 8 7 8 9 8 10 6 8 11 9 11 10 7 9 4 10 3 5 6 2 5 2 4 4 6 9 3 5 1 3 7 5 9 8 7 11 12 12 13 12 11 11 10 10 9 9 10
20 21 20 20 20 20 19 19 19 19 19 18 17 18 16 14 12 12 12 11 12 12 10 8 7 5 6 2 3 5 3 7 7 7 5 7 7 7 7 5 8 8 8 7 7 6 5 9 8 9 10 11 13 10 9 0 3 2 2 4 2 1 1 5 3 7 8 5 5 5 3 6 10 10 8 8 9 11 12 13 13 11 11 10 10 10 10 10
19 20 21 20 20 20 19 19 18 18 18 20 17 19 18 15 12 9 10 11 10 8 7 7 8 9 11 5 6 9 6 9 9 6 7 8 5 8 3 4 4 7 8 7 5 6 5 6 9 8 10 12 11 8 7 3 2 3 3 7 2 1 6 3 5 5 5 7 3 4 3 4 4 6 7 9 11 11 9 12 13 12 12 10 10 10 10 9
18 18 18 21 20 20 21 18 19 18 18 19 21 17 14 13 10 8 8 9 7 7 6 5 4 9 6 7 7 6 7 5 8 4 4 7 7 7 2 4 6 8 7 8 7 6 8 8 5 8 10 10 8 10 7 5 6 3 2 6 7 3 4 4 3 6 5 7 8 7 5 5 3 9 8 9 10 12 12 10 13 11 11 10 9 9 10 9
17 17 19 21 21 21 21 19 19 19 17 17 18 15 12 11 11 11 9 7 6 6 8 9 9 7 7 5 7 3 4 2 4 4 5 3 7 4 5 6 5 7 6 8 9 10 7 8 6 8 7 10 10 9 8 2 2 3 3 2 3 5 4 4 5 8 8 8 8 8 7 9 4 9 9 11 10 11 12 12 12 12 12 11 10 9 12 10
20 19 19 18 19 21 21 20 18 18 18 20 23 18 15 15 9 7 6 5 4 4 5 7 6 4 9 3 5 3 1 8 3 1 7 7 7 7 6 7 6 4 7 7 6 10 7 7 7 8 9 8 10 11 5 7 4 9 7 4 4 4 3 2 4 8 10 8 5 9 7 7 4 7 8 11 9 10 11 12 10 11 12 11 11 10 10 11
21 21 19 17 17 19 21 21 19 16 17 13 6 5 5 3 4 3 7 9 11 10 10 2 9 5 9 5 6 8 2 4 7 6 3 4 3 7 9 7 6 7 8 8 7 10 6 8 8 9 9 10 11 7 2 2 11 13 2 1 4 2 4 5 3 8 8 8 8 11 10 8 9 8 7 10 12 10 11 11 11 11 11 11 11 11 11 11
17 19 17 18 16 18 20 21 18 15 14 8 9 7 6 9 9 4 4 8 11 6 8 3 5 8 9 4 1 7 7 8 8 6 7 5 9 5 6 6 7 7 7 10 10 9 7 9 10 11 11 13 5 10 7 13 9 2 3 6 3 4 4 3 1 4 8 7 8 11 8 8 7 4 3 6 6 13 10 10 11 12 12 10 11 12 11 11
17 17 18 17 18 17 21 19 17 16 15 6 6 7 9 7 6 6 6 6 6 3 7 1 3 6 4 7 3 8 6 7 6 4 6 5 6 8 10 7 7 8 7 8 9 7 7 9 11 13 12 13 6 4 3 4 6 4 6 2 3 4 4 2 7 7 3 4 3 2 1 4 3 3 4 7 5 5 5 10 11 11 12 10 11 12 12 11
17 18 17 18 17 17 17 20 15 17 7 5 7 14 5 8 6 6 7 8 11 2 6 4 11 6 5 2 4 3 8 10 7 5 8 5 6 9 6 7 6 8 10 8 9 8 9 10 14 11 14 7 2 6 6 3 7 2 1 4 2 4 4 1 2 7 9 5 0 4 8 3 1 3 8 4 2 4 5 14 9 9 12 11 12 13 12 13
17 16 17 17 18 17 21 18 21 10 8 14 14 7 7 5 8 8 9 7 6 8 6 3 6 4 4 6 7 7 9 2 2 11 7 6 9 5 7 6 10 8 9 11 10 11 11 5 3 9 12 4 8 6 8 7 6 7 3 2 2 3 3 4 4 3 1 2 5 5 5 5 6 7 8 3 3 4 7 12 15 10 10 9 12 13 12 12
16 16 16 16 17 17 18 22 8 9 12 12 15 5 6 5 5 8 7 7 8 4 3 7 6 1 7 3 6 7 2 3 8 8 5 6 7 5 6 2 6 7 10 8 3 9 13 14 12 5 8 4 2 7 11 8 4 6 9 4 3 3 5 6 8 6 3 4 5 6 4 7 10 13 11 6 4 5 10 11 10 13 11 9 11 14 13 13
18 17 16 15 17 18 18 6 4 11 10 9 5 6 6 6 7 5 5 6 6 7 6 7 3 5 2 8 6 6 3 4 4 5 1 5 7 9 5 8 5 7 3 5 10 7 9 8 8 7 8 5 6 9 10 7 9 8 10 8 5 4 6 6 7 4 3 4 6 5 6 3 10 12 11 10 11 11 11 11 13 12 11 11 8 12 13 14
18 18 15 15 14 16 7 5 10 15 12 1 4 7 6 5 5 7 6 7 8 5 7 7 5 5 4 4 7 2 8 9 4 4 7 5 9 5 9 5 6 6 6 7 4 7 10 6 4 5 7 6 8 9 10 11 9 4 12 10 4 5 3 6 5 3 2 4 3 8 8 6 6 10 12 11 10 13 13 10 10 11 14 14 11 12 13 14
17 17 16 14 10 6 5 9 13 12 10 8 7 6 7 4 3 4 4 6 7 5 6 6 6 4 7 7 4 9 4 1 7 9 5 8 5 8 8 6 9 8 3 6 9 6 5 8 9 5 7 8 9 9 8 8 11 5 10 8 6 4 9 4 3 2 3 5 2 8 13 8 5 5 11 11 9 11 11 11 13 13 14 14 13 12 14 14
18 18 16 14 12 12 9 6 8 12 12 9 8 8 6 2 7 4 6 9 4 3 3 5 1 7 5 2 9 7 6 6 4 4 4 2 7 10 8 6 10 6 7 8 10 2 5 6 6 7 7 8 8 10 12 5 10 12 8 4 1 4 7 12 4 5 4 3 6 6 7 8 6 6 9 11 11 12 13 14 13 13 11 10 13 13 15 13
19 17 15 13 13 5 4 6 9 13 10 9 8 10 9 7 6 7 6 5 4 6 6 5 5 7 5 10 7 6 5 8 5 4 5 6 8 7 9 8 10 7 8 9 11 12 8 3 9 6 5 7 10 10 8 12 11 11 3 5 3 5 3 3 6 4 2 3 5 6 11 10 5 7 8 11 11 11 10 11 12 12 13 13 13 14 13 13
19 16 13 8 5 5 6 8 9 11 9 7 10 12 9 6 6 6 9 6 5 7 4 3 8 3 9 9 8 11 9 5 9 2 6 5 9 6 6 9 6 8 7 9 11 12 12 11 9 6 9 10 9 11 12 5 8 6 3 8 8 4 4 5 4 4 4 3 1 7 7 9 7 3 6 8 3 11 12 13 13 13 15 16 15 13 13 15
20 18 11 6 6 8 6 8 10 11 8 10 11 9 7 8 8 9 7 7 8 7 6 6 4 7 1 0 9 8 6 7 8 7 5 8 8 8 8 7 7 8 9 9 10 13 12 10 9 10 9 10 10 9 6 7 5 3 4 6 6 5 4 6 3 7 4 4 3 5 5 6 8 6 6 8 9 6 9 8 6 13 17 15 14 15 12 13
25 17 14 13 10 7 11 15 13 9 10 11 9 7 7 7 8 7 6 3 2 3 7 9 4 3 6 8 4 3 2 6 9 9 5 5 8 9 11 7 5 7 9 5 8 6 8 12 12 9 8 10 8 8 6 7 7 8 8 7 7 7 7 6 6 3 1 5 6 6 9 2 6 5 15 3 7 5 8 12 11 17 15 15 12 13 13 14
29 19 8 7 11 11 9 9 7 8 9 8 8 8 8 8 9 2 8 8 2 5 3 5 4 5 6 7 4 6 4 10 8 4 4 6 6 7 7 6 3 8 7 8 10 10 8 2 10 5 7 13 9 8 8 8 9 12 9 9 6 8 6 6 3 5 3 1 5 7 5 2 2 3 9 15 11 5 6 4 3 8 6 9 13 13 12 12
33 19 9 6 8 11 15 12 9 10 8 7 8 9 9 9 9 10 4 5 3 5 4 8 8 4 7 8 6 7 5 1 6 2 7 7 7 8 2 9 6 5 1 9 7 7 3 8 9 7 11 9 5 5 8 12 12 8 4 6 7 9 5 7 2 3 1 3 3 1 1 1 2 2 5 6 12 9 10 7 7 7 8 13 12 13 11 11
21 0 7 5 7 9 12 9 9 9 6 7 8 9 10 7 9 5 3 6 3 7 6 7 6 8 6 10 7 5 13 8 6 4 7 8 4 0 5 1 8 4 8 8 7 8 2 4 10 4 5 3 3 3 8 6 9 1 5 8 7 4 5 3 7 1 6 6 2 1 1 1 4 3 6 6 9 9 7 10 12 10 9 13 13 14 15 14
10 8 6 9 11 9 10 10 7 7 7 8 9 11 9 10 11 2 3 6 9 9 4 8 6 8 4 6 8 9 8 6 5 6 7 8 7 6 8 8 7 7 6 8 6 3 10 8 6 6 10 10 9 8 10 10 10 7 7 4 2 7 10 4 5 2 6 4 2 4 1 3 2 1 2 6 8 7 8 8 9 10 12 9 11 12 13 14
10 8 12 12 9 8 8 8 8 6 7 8 11 12 11 14 6 9 7 4 4 8 10 8 2 4 7 8 11 7 8 7 10 8 5 6 5 7 2 7 4 1 3 5 7 2 2 6 5 7 5 6 7 5 10 11 12 12 10 11 3 2 6 5 2 8 6 6 2 1 4 2 3 2 6 3 5 8 6 8 8 4 8 8 9 13 14 13
8 7 8 10 7 8 7 7 7 7 8 10 10 11 10 14 8 7 5 5 3 8 9 7 9 2 7 3 9 8 12 5 5 7 8 3 5 3 8 11 11 1 5 7 7 9 2 7 5 4 7 12 15 5 7 8 11 14 2 9 5 4 4 6 6 7 6 3 3 3 2 0 2 3 3 5 6 6 0 4 7 4 6 7 8 10 10 12
8 7 8 11 9 9 8 7 7 8 9 11 10 11 8 12 9 11 5 3 7 9 5 10 4 8 7 6 2 7 2 12 1 4 4 7 5 4 1 5 8 2 4 3 8 4 5 4 9 4 6 12 8 7 5 6 7 10 9 5 5 6 4 7 6 10 6 3 2 1 1 1 1 1 4 4 4 3 5 3 2 4 9 9 7 7 4 1
9 8 1 10 10 8 9 7 8 10 11 10 14 15 16 13 5 6 3 7 9 4 10 9 7 6 6 10 9 7 4 5 2 7 6 6 5 4 10 3 7 7 13 5 7 3 6 5 6 6 4 5 10 9 14 14 13 6 7 7 8 8 8 8 8 6 7 5 1 4 1 3 2 4 2 5 5 4 3 3 2 3 1 8 5 5 5 8
7 7 4 7 11 10 8 8 8 9 9 12 11 11 10 9 10 7 9 5 7 8 7 9 7 7 6 9 8 7 6 6 7 7 3 5 10 3 9 2 2 7 3 6 10 14 5 7 5 6 5 7 13 4 1 7 8 10 4 7 7 10 10 8 6 5 5 2 13 5 4 3 1 2 10 11 1 5 4 0 4 7 8 8 8 12 11 7
7 8 9 8 10 10 8 8 8 10 11 11 14 18 12 2 7 6 7 5 7 7 9 7 8 8 8 10 2 5 3 7 8 6 6 5 6 10 6 1 10 9 4 7 9 11 9 3 6 7 8 11 10 8 10 9 9 8 8 8 7 7 9 9 8 6 7 3 1 3 5 3 3 6 11 10 6 3 3 7 5 3 3 3 5 7 7 5
11 11 9 7 10 10 10 9 9 11 10 13 16 17 15 9 7 10 9 9 7 9 8 6 5 6 10 5 4 8 2 7 5 11 4 5 2 3 9 4 6 5 7 7 7 9 4 4 3 5 6 6 8 7 8 8 7 7 4 3 6 5 10 8 8 7 6 5 6 3 4 2 7 12 5 3 8 3 4 5 5 3 2 3 4 6 5 6
10 9 10 6 8 8 10 9 11 10 11 14 13 14 14 9 6 11 8 10 8 11 6 8 9 7 9 5 6 10 8 10 8 2 11 5 2 2 9 3 5 6 11 9 10 6 6 7 7 6 7 7 6 7 6 5 9 6 3 4 2 10 1 4 7 4 4 4 5 5 4 6 10 9 8 4 12 5 6 3 2 3 2 1 6 7 7 6
5 8 5 8 9 8 10 10 12 12 12 12 11 12 12 14 10 13 11 13 10 10 10 11 7 3 3 4 6 7 8 6 8 3 5 7 7 8 9 4 6 9 14 10 8 6 5 8 3 3 5 8 4 9 7 7 8 9 4 5 8 6 8 9 5 3 6 3 6 2 1 9 7 7 7 7 7 9 4 7 2 4 5 5 5 6 6 7
7 8 7 8 4 10 8 8 11 12 12 10 10 7 15 18 12 10 17 10 11 13 9 10 7 4 8 10 8 9 10 11 9 12 11 14 4 5 9 5 3 6 7 8 5 5 6 9 4 5 7 8 11 12 10 6 9 10 8 7 4 4 9 10 7 7 11 2 3 1 5 8 6 6 5 7 7 10 11 6 1 3 3 4 5 6 6 7
6 6 10 8 4 4 7 8 11 12 15 14 11 11 15 10 7 12 10 11 5 10 11 7 11 10 10 9 11 10 9 9 10 11 14 10 11 4 10 14 8 13 8 6 8 7 5 8 7 4 8 8 9 10 11 9 4 7 9 6 5 5 7 9 10 2 10 5 5 6 1 3 5 3 3 5 8 10 9 11 5 2 4 4 6 7 8 7
9 8 10 14 9 8 10 11 15 14 14 12 9 12 13 13 14 15 9 13 7 10 12 11 11 11 11 8 10 12 8 5 11 11 10 8 9 7 9 6 2 11 9 9 5 9 9 4 1 3 8 9 8 7 9 8 8 7 8 6 2 3 2 7 8 9 6 6 5 7 7 6 3 4 3 5 5 10 13 11 5 4 3 4 8 9 8 7
7 9 10 11 12 12 11 10 10 9 9 8 7 8 10 12 14 11 11 13 7 9 6 12 12 12 14 12 12 10 9 11 11 4 6 10 11 9 9 7 6 7 6 9 5 10 6 3 4 4 5 6 6 6 9 9 4 6 8 9 9 1 5 7 9 7 6 6 5 5 8 7 4 4 5 5 6 9 11 13 13 9 5 7 9 11 10 9
9 8 8 9 10 9 10 11 10 10 9 9 9 9 11 13 14 12 16 10 13 10 12 11 10 14 12 14 17 15 10 10 12 7 10 10 11 7 5 4 6 9 8 10 5 9 7 3 5 7 2 5 3 5 9 8 5 5 6 8 4 5 5 6 6 8 7 2 4 2 2 5 5 4 6 8 7 9 11 11 10 10 10 6 5 9 9 10
9 9 10 8 9 9 11 11 12 10 9 7 8 10 10 14 13 14 14 12 12 13 12 12 12 8 10 10 10 9 4 14 15 9 8 14 11 6 8 11 6 4 5 10 6 6 3 3 4 5 4 5 4 4 4 8 5 5 6 4 7 5 8 5 7 12 2 7 5 5 4 3 7 8 7 6 7 8 11 11 10 9 8 9 9 9 9 9
Wind_Direction
348 345 345 345 341 340 339 336 335 332 329 328 324 322 319 317 315 311 307 302 299 298 301 301 305 310 312 313 313 314 313 303 303 268 227 248 81 130 118 112 166 162 193 214 229 242 229 217 222 228 239 218 131 114 151 139 143 83 78 309 192 276 305 345 321 107 124 134 133 145 126 129 121 144 160 164 105 124 139 103 78 77 93 110 119 128 131 132
348 346 345 344 342 340 337 335 332 329 328 326 323 319 316 314 313 312 310 309 308 305 304 306 308 312 312 311 313 315 312 297 283 271 252 71 124 153 141 172 188 183 181 221 230 223 239 217 217 216 231 218 77 165 172 163 153 155 237 189 157 202 252 299 325 110 151 131 140 131 144 143 130 154 173 141 147 141 118 108 106 105 107 114 129 130 135 142
347 346 345 344 342 339 337 336 333 330 328 325 322 319 315 312 310 308 307 307 308 308 307 307 312 311 309 311 312 310 303 298 268 258 162 293 131 173 155 185 190 180 199 216 218 238 259 283 303 233 223 267 173 153 180 152 175 88 221 160 61 357 328 309 316 179 143 138 134 144 129 133 142 152 166 150 132 136 115 120 121 124 127 129 130 138 142 144
347 346 345 344 341 339 337 336 333 329 326 323 319 316 314 311 308 305 303 303 303 304 305 307 309 310 309 308 314 311 294 286 276 83 60 67 10 110 199 181 193 202 220 242 267 285 267 269 272 278 278 242 223 127 78 189 138 134 57 256 91 34 8 357 317 191 152 153 133 129 133 136 150 154 156 146 136 119 139 129 132 133 133 133 139 142 149 145
346 346 344 342 340 337 337 334 332 329 326 321 318 314 312 309 306 303 302 300 300 301 304 305 307 309 307 308 303 293 306 274 88 72 61 20 113 50 107 210 196 211 222 242 258 262 265 274 282 263 257 264 12 309 161 178 122 82 3 131 207 106 57 230 263 199 174 124 137 140 149 131 128 144 137 155 143 144 144 133 132 133 136 140 143 144 143 142
345 343 343 341 338 338 336 334 331 329 325 322 317 313 310 307 304 302 299 297 296 298 299 305 307 307 308 307 303 284 268 14 56 58 106 95 220 96 214 195 210 245 234 237 251 269 258 249 253 255 241 310 204 222 198 136 126 78 269 255 225 185 155 248 266 180 180 154 153 153 129 130 134 120 137 167 121 128 134 132 129 135 140 140 137 138 141 143
345 344 341 340 337 337 337 334 331 328 326 321 317 313 310 307 303 300 296 295 292 294 298 301 305 309 307 297 268 268 249 325 76 110 127 203 165 207 191 201 202 233 237 246 252 257 240 257 263 271 280 215 326 298 50 84 96 133 150 173 192 177 178 215 251 303 178 140 78 299 146 131 141 132 165 132 129 117 130 129 131 136 139 136 140 143 140 144
344 343 341 338 338 336 334 333 331 327 325 322 317 313 308 305 301 298 296 294 293 292 296 301 305 308 321 304 263 233 232 36 97 133 149 153 203 189 189 209 206 209 227 238 249 245 263 262 267 274 272 331 242 272 56 87 79 109 120 214 164 181 180 219 277 51 204 116 152 231 149 158 132 129 170 120 134 146 130 131 136 137 138 138 141 137 139 144
344 342 341 339 337 335 334 332 331 328 325 322 318 313 306 302 299 297 294 293 291 292 293 299 303 302 301 286 283 290 124 71 109 134 148 175 199 174 198 197 196 209 230 243 247 269 268 254 249 239 301 277 312 292 83 5 47 355 127 163 183 190 187 137 118 157 239 103 356 150 145 160 125 152 138 156 151 131 130 139 139 138 142 144 137 129 139 146
343 342 340 339 336 334 332 332 330 328 326 322 319 314 307 302 299 296 293 290 289 290 293 295 297 302 290 264 274 267 102 133 129 141 151 164 166 181 208 229 174 219 243 239 251 248 252 270 307 336 332 275 269 269 35 53 61 126 156 142 177 179 166 157 192 160 170 147 67 209 162 132 145 203 145 171 136 140 141 141 140 142 142 137 133 140 150 145
344 341 340 338 336 333 332 330 330 328 325 325 322 316 308 303 297 293 291 289 288 289 291 289 297 302 276 258 275 319 13 262 130 147 146 176 173 200 209 237 216 242 246 266 259 261 273 285 327 302 268 346 315 273 126 172 122 130 121 144 135 173 192 120 325 207 235 119 130 219 12 154 142 288 148 156 153 149 144 142 145 142 140 141 139 141 145 137
342 341 340 338 336 332 330 330 329 327 326 325 321 316 310 302 296 291 289 287 286 286 283 284 283 275 272 273 265 44 230 96 217 125 190 189 208 216 237 245 249 246 256 266 255 245 274 287 309 289 295 341 290 328 26 24 108 135 121 155 126 203 197 141 168 232 266 133 145 178 116 141 150 225 151 164 155 150 149 145 148 145 140 139 138 140 139 135
341 340 339 337 334 332 329 328 327 326 325 322 319 315 310 304 297 292 288 287 273 265 267 270 269 251 290 273 117 108 261 142 229 156 186 207 224 214 251 257 254 251 265 280 287 297 273 258 284 275 281 293 310 329 91 267 87 73 10 157 157 287 183 153 204 173 353 96 148 174 164 180 130 253 193 174 157 160 147 152 148 143 145 145 142 147 136 136
341 339 338 335 333 330 329 326 325 325 324 321 319 316 310 302 296 294 285 272 278 280 279 277 271 260 258 282 117 130 298 56 146 217 222 216 232 213 225 237 249 258 255 267 283 302 316 312 259 271 288 277 280 338 263 108 76 91 261 265 213 206 174 204 153 169 179 198 159 274 135 142 129 238 202 169 165 162 161 153 152 154 149 149 145 149 145 138
339 338 335 334 332 329 327 325 324 324 324 321 318 314 308 298 293 288 279 269 255 258 261 266 239 252 229 160 100 138 341 280 225 224 215 200 239 212 223 215 238 244 252 262 268 259 256 281 268 256 263 249 243 250 274 218 73 62 293 240 90 353 125 195 176 194 183 169 162 170 149 153 168 192 179 176 165 170 176 157 155 160 149 155 149 154 146 156
336 335 333 332 330 328 325 324 325 323 323 321 315 310 300 293 291 282 270 262 277 286 253 252 211 232 289 252 113 123 222 224 218 202 198 256 212 263 118 225 245 242 239 253 240 285 284 254 253 265 269 272 270 250 258 284 144 156 265 298 310 145 131 164 192 207 240 161 170 248 143 150 196 209 190 186 169 170 184 168 156 160 154 157 156 159 149 156
334 333 333 330 329 326 326 324 323 323 323 318 313 299 289 285 275 270 265 262 250 222 230 268 294 193 292 69 132 192 201 195 51 226 183 247 279 305 237 231 227 235 225 248 247 246 248 247 249 254 249 271 278 288 280 252 310 344 354 324 339 299 139 172 185 205 216 207 183 168 167 188 132 191 213 197 189 172 179 182 158 162 154 159 162 158 145 152
333 332 331 329 327 326 324 322 321 322 323 317 305 292 291 293 295 283 251 232 237 224 230 248 268 293 220 206 201 131 39 158 230 196 243 194 243 249 253 226 211 253 229 234 225 236 210 235 219 264 267 235 230 251 240 271 329 14 344 287 329 349 208 181 170 184 183 211 191 182 218 181 169 187 218 199 198 182 183 175 177 163 158 159 169 163 152 157
332 331 329 326 324 324 324 321 320 323 323 317 285 274 267 261 266 236 262 184 207 186 215 193 199 256 47 77 15 232 188 53 295 283 187 230 198 240 222 257 274 234 226 235 182 221 196 244 231 241 249 248 238 234 332 34 279 334 342 26 306 312 325 272 191 148 176 160 187 189 197 174 190 200 215 201 197 199 190 180 168 171 160 164 162 168 154 159
333 329 326 322 321 322 323 321 319 319 330 326 306 245 228 212 188 207 201 230 239 271 336 94 221 286 185 169 125 53 349 199 207 203 197 241 259 204 238 240 215 236 251 239 175 205 202 226 224 234 240 249 255 250 138 292 46 63 303 319 3 343 31 21 317 175 165 156 207 199 188 169 182 199 228 208 187 205 197 195 170 172 168 169 165 163 160 159
330 329 323 321 322 320 322 321 315 315 327 299 285 294 324 22 333 53 356 249 239 226 301 5 318 347 35 312 253 199 193 176 237 126 239 123 244 235 198 207 231 224 228 248 249 159 213 236 242 245 249 250 353 37 33 76 55 201 298 332 15 3 111 205 190 220 185 211 188 210 153 187 183 190 294 338 299 200 205 202 175 173 174 175 163 159 168 161
326 326 325 322 321 322 320 317 313 313 310 260 266 275 308 33 355 325 325 286 141 182 205 242 246 204 81 297 273 289 237 227 165 169 160 215 196 238 139 249 212 246 212 215 249 203 205 235 246 247 250 263 137 175 219 124 104 10 75 200 259 86 70 74 143 232 176 126 241 280 111 241 176 170 249 256 233 310 298 232 182 178 183 171 167 165 163 165
323 322 324 325 323 319 322 309 309 315 300 227 242 255 296 345 335 347 294 277 283 169 206 196 223 152 192 155 60 227 247 236 166 180 161 224 227 243 276 233 227 243 243 208 238 217 229 229 229 238 253 246 172 223 227 152 117 293 168 279 4 138 170 269 179 198 166 195 132 147 180 258 8 234 239 221 270 235 238 289 251 181 191 181 170 168 165 172
320 318 318 323 323 323 314 315 302 279 223 239 263 317 0 340 335 335 321 281 275 156 243 82 328 275 130 342 128 241 256 62 273 169 126 224 242 151 226 249 274 238 241 217 232 268 256 271 87 258 209 184 259 246 217 215 165 151 142 271 182 192 196 21 174 150 36 242 95 162 145 174 206 213 212 183 213 256 271 269 246 189 202 194 171 160 176 171
321 318 316 319 325 321 317 317 296 234 241 231 245 6 349 359 338 346 311 296 252 181 53 142 263 58 59 214 176 242 313 28 19 90 149 230 236 254 280 2 265 252 269 330 254 245 276 292 269 278 327 262 292 270 278 267 210 152 169 165 277 171 78 103 133 123 168 212 210 141 204 201 203 209 202 171 170 228 265 253 240 198 198 202 188 164 174 171
324 320 321 318 322 326 307 309 254 333 321 295 11 17 351 341 19 321 300 273 264 122 177 168 240 140 337 188 197 255 227 206 155 124 279 205 306 296 309 243 215 286 352 260 253 251 247 246 326 349 255 202 258 284 280 267 266 201 173 185 207 77 107 140 161 191 176 215 163 163 218 216 167 193 196 174 185 189 235 246 223 197 195 193 213 166 177 172
326 322 320 322 323 330 304 284 347 311 285 115 359 14 336 5 22 304 269 240 228 127 186 105 189 95 245 95 252 126 237 146 150 122 215 111 257 216 275 276 181 226 239 315 338 238 255 277 308 301 312 291 265 254 217 248 286 328 109 153 204 119 60 151 162 203 288 138 112 206 212 256 199 201 184 179 195 186 193 222 234 205 200 186 209 180 179 173
324 323 321 317 317 325 303 317 312 300 309 357 348 340 350 21 321 266 262 285 75 224 146 147 50 139 247 150 261 266 16 23 241 143 252 121 242 224 234 303 301 328 210 190 262 79 235 242 226 221 229 247 255 256 274 234 235 144 170 147 195 156 132 154 117 306 351 350 271 207 217 243 245 189 179 175 201 204 197 208 200 206 202 191 202 191 179 179
324 323 320 316 306 267 251 251 303 282 291 329 326 331 337 351 277 282 277 278 122 217 5 127 333 188 244 112 233 293 192 173 276 98 161 200 233 307 265 300 319 270 301 296 281 261 155 298 267 243 241 253 230 248 268 282 286 104 93 87 240 201 167 140 144 105 24 307 244 255 213 233 236 190 171 181 205 206 202 196 202 208 221 219 196 201 182 177
322 320 319 321 308 200 199 222 240 254 287 305 323 309 297 267 254 243 237 255 128 158 221 106 210 176 185 225 214 197 206 173 311 183 152 268 144 206 241 277 263 280 259 232 258 265 288 220 331 313 264 255 269 276 239 254 207 103 260 308 235 214 220 158 118 125 107 241 263 237 242 233 274 169 187 179 204 197 197 200 197 203 207 214 201 206 187 180
319 314 313 314 276 338 312 248 242 241 261 330 313 302 282 258 250 282 282 60 261 101 201 161 154 219 211 214 234 174 279 145 172 126 194 224 193 215 230 216 233 261 245 247 229 235 230 211 216 227 251 274 286 257 266 27 21 22 256 237 258 209 191 232 131 166 215 241 264 283 262 239 254 144 193 223 206 202 197 207 186 195 205 198 205 209 195 185
317 310 288 241 280 332 250 236 10 330 341 313 313 297 281 268 217 242 288 131 253 118 281 123 163 293 352 138 283 173 183 190 180 198 211 211 191 218 186 261 194 249 236 217 233 201 227 219 202 218 182 244 229 259 255 232 181 196 244 247 251 236 218 253 156 230 223 307 81 59 353 239 245 284 286 219 206 204 220 220 185 201 194 197 190 201 207 188
316 308 280 236 251 240 243 262 292 303 309 301 298 289 266 268 276 252 218 235 56 354 79 305 47 174 237 214 228 56 346 314 113 254 287 270 284 239 175 245 354 292 300 334 314 179 228 195 177 210 198 180 247 238 214 208 214 231 221 238 228 245 239 246 234 116 136 256 133 120 124 168 288 322 344 239 185 211 226 237 194 193 193 188 196 201 208 196
312 313 289 197 201 225 260 277 291 307 303 300 278 275 253 264 267 296 306 251 94 188 247 238 216 210 287 274 217 142 200 189 290 135 220 212 202 244 181 196 273 267 230 308 299 354 344 178 185 182 225 144 219 245 259 269 199 206 223 236 232 250 274 273 291 282 352 260 111 143 165 227 276 326 330 335 338 27 7 1 238 135 228 221 202 205 218 230
309 298 226 220 213 239 239 249 258 268 282 280 271 258 264 257 261 268 318 43 65 34 274 116 261 251 188 241 113 216 240 199 225 257 186 232 232 300 161 164 189 232 23 271 68 298 304 303 102 140 33 131 291 186 267 274 290 273 196 191 241 258 218 243 266 303 342 278 107 302 20 120 15 165 318 330 315 353 358 338 347 303 208 205 203 200 197 228
305 337 165 208 217 220 207 215 227 237 253 265 262 251 245 249 273 29 88 329 135 266 279 158 258 242 223 236 118 301 145 282 119 240 249 234 264 358 58 156 52 9 342 322 19 286 130 236 70 124 143 265 267 348 251 247 255 6 211 230 259 280 298 256 257 263 314 254 129 272 167 94 190 20 349 323 331 343 344 345 340 315 266 203 204 195 195 207
333 310 217 228 227 224 183 196 197 213 239 261 260 255 260 271 330 201 110 268 11 343 256 281 185 258 243 212 182 155 157 242 207 233 229 153 265 141 256 41 77 265 359 347 293 8 324 332 288 247 257 202 200 247 270 217 247 281 261 305 201 238 289 297 262 220 255 253 75 284 157 148 146 329 264 345 322 334 357 347 329 306 290 246 206 206 195 207
309 297 288 275 230 174 156 184 194 210 243 248 249 263 282 277 261 258 43 325 284 217 279 267 117 267 259 283 154 163 153 239 133 193 227 135 360 59 24 240 133 166 78 264 292 66 51 269 316 344 336 309 294 208 251 269 237 232 255 86 276 237 222 202 253 242 235 268 72 71 13 133 170 174 152 110 308 324 339 330 319 311 261 238 230 216 205 208
268 272 277 235 132 147 163 171 204 221 233 238 243 253 240 243 290 348 42 303 336 295 263 236 299 212 276 260 30 214 128 286 110 304 328 80 257 116 311 356 153 101 229 160 251 327 77 287 234 206 347 347 322 184 247 208 230 272 313 150 185 232 237 260 238 276 277 108 255 44 283 44 211 172 121 156 196 239 176 241 289 327 269 237 217 227 218 186
284 272 259 149 144 151 145 184 208 219 234 239 239 249 254 265 257 202 192 234 230 236 213 300 172 300 236 297 315 284 235 225 245 261 225 149 236 148 238 193 285 315 47 223 300 138 272 97 292 324 331 339 302 314 321 304 254 202 200 235 191 218 209 258 240 235 255 138 121 41 269 358 136 119 106 154 209 343 346 327 356 15 320 288 285 234 194 29
299 272 337 126 142 137 167 185 217 216 228 242 255 268 273 282 252 158 233 173 261 251 315 278 318 284 354 302 212 201 297 51 256 269 250 163 230 187 200 299 71 282 347 335 195 285 271 219 268 340 335 312 308 2 342 325 327 325 338 312 292 244 218 224 250 221 237 148 151 171 184 292 96 141 152 86 8 0 296 284 51 39 340 277 275 276 95 65
294 282 148 156 127 178 183 209 219 226 236 237 241 234 239 220 271 302 168 188 256 286 192 269 282 301 299 272 336 319 322 283 198 244 196 307 130 237 68 30 300 358 314 291 299 44 348 4 335 287 273 262 267 279 140 309 299 305 284 260 282 301 283 242 265 243 238 201 168 143 133 232 54 81 76 94 178 217 259 199 60 15 4 11 23 25 16 47
283 302 114 193 151 204 214 246 224 224 231 245 253 253 265 43 273 253 270 184 219 208 254 208 246 245 232 279 45 298 229 253 275 178 269 181 247 91 96 333 78 278 286 244 266 51 308 271 293 280 303 290 272 282 285 250 247 231 220 254 262 287 298 291 292 297 292 262 239 139 143 226 152 75 84 116 194 266 7 18 62 62 311 26 46 87 108 82
320 302 288 191 173 213 238 232 229 230 230 238 244 260 262 252 185 240 236 249 230 175 238 277 257 255 286 222 297 258 93 262 207 286 194 45 52 130 152 302 66 285 277 27 293 49 314 55 328 312 286 291 282 284 250 274 255 262 81 337 318 293 331 312 286 317 294 282 137 197 233 182 88 74 26 89 95 356 25 48 58 77 342 52 36 29 26 45
296 277 258 216 179 223 233 227 251 251 223 228 236 240 256 227 211 264 255 227 194 275 240 205 258 257 225 134 258 250 290 311 330 168 287 314 272 183 59 326 49 236 62 26 354 26 300 315 299 306 315 301 314 334 313 336 310 322 45 344 343 292 252 305 262 241 236 269 266 246 146 131 104 120 153 185 111 88 336 43 72 106 96 23 79 73 65 53
275 298 272 218 187 211 226 254 264 265 275 288 264 239 240 261 201 200 249 273 279 218 227 286 246 235 284 226 211 262 265 237 243 260 189 196 233 208 132 168 171 267 73 67 14 346 307 291 270 44 311 303 271 208 255 250 258 262 311 338 316 305 287 267 274 196 253 243 228 78 257 136 132 152 155 118 113 129 103 321 31 42 56 69 70 71 82 85
306 279 306 314 262 198 239 222 234 247 261 262 260 286 257 218 254 220 185 235 219 271 272 214 236 184 216 272 268 243 216 252 232 278 273 306 354 76 129 191 184 172 63 303 284 296 267 256 176 219 248 269 294 290 289 250 270 277 285 300 287 290 295 276 273 310 324 284 265 69 152 151 150 173 153 129 128 112 113 141 156 154 59 59 85 86 95 82
274 318 305 26 317 289 262 230 227 232 238 238 266 281 298 298 189 260 183 207 259 214 246 196 248 262 276 217 212 218 225 235 280 238 219 219 286 265 207 171 225 135 167 239 240 230 233 282 63 305 297 295 292 294 292 282 274 292 275 252 295 317 282 277 287 319 311 265 279 161 95 139 123 137 132 109 125 120 123 132 206 49 97 109 106 105 96 98
303 337 311 359 318 315 286 300 314 318 308 287 270 255 259 264 245 218 224 167 196 252 199 253 206 230 245 267 301 323 325 255 204 236 306 322 268 269 283 254 212 128 198 209 247 235 219 197 167 323 323 288 273 298 297 321 316 303 298 302 205 275 8 307 281 259 271 351 52 118 103 121 127 97 94 107 100 106 114 121 126 84 37 78 102 90 82 77
336 345 324 335 314 297 296 294 281 289 284 284 287 294 292 274 266 267 242 246 189 210 208 233 259 203 213 233 227 214 231 244 277 264 169 252 263 263 262 305 332 193 266 306 269 39 318 69 316 9 289 300 300 290 292 280 276 278 274 265 276 319 352 353 341 325 311 96 91 145 158 128 94 91 120 106 82 84 97 97 105 90 63 68 93 94 98 102
342 315 317 305 305 296 308 298 283 265 256 237 263 269 261 258 268 269 274 241 241 242 189 232 234 262 268 239 215 190 193 260 296 312 275 226 225 214 238 227 232 277 214 228 163 150 221 166 215 178 308 297 250 296 302 286 232 260 284 266 250 38 328 1 330 341 16 350 131 197 211 163 151 159 135 104 109 102 94 95 98 118 128 110 90 100 99 93
331 330 324 308 285 297 287 284 278 281 263 269 259 251 246 253 253 256 257 262 259 242 255 201 224 244 247 273 284 313 333 268 248 214 210 260 288 339 235 262 264 222 273 273 299 293 256 313 268 289 285 277 285 286 290 284 279 264 244 231 273 124 94 51 360 320 118 270 159 227 246 207 159 165 148 132 125 113 105 101 106 101 103 115 111 102 97 92